STARLINK-5162 (54184 NORAD) Tracking and Keplerian Element Data

This shows tracking and keplerian element data for the satellite.

Feedback or suggestion? Click here.




ElementValue
Catalog54184
NameSTARLINK-5162
Epoch Orbit402
Epoch Day324.91667824
Epoch Year2022
RAAN25.7445
Inclination53.2169
Eccentricity0.0003029
Argument of Perigee6.5595
Mean Anonmoly291.9885
Mean Motion15.73166408
Decay Rate6.371E-05
L11 54184U 22141AD 22324.91667824 .00006371 00000+0 49856-4 0 9990
L22 54184 53.2169 25.7445 0003029 6.5595 291.9885 15.73166408 4020



Live tracking and technical data element details for STARLINK-5162 (NORAD 54184). STARLINK-5162 can be tracked NOW for your location showing map with azimuth and elevation plus other details from your city location.







IsCatalogInMostPopularTable: catalog: 54184, numindb: 6
Update: records affected: 1



GetName: 54184 STARLINK-5162

Hit Count: updated at: Sun, 04 Dec 2022 22:02:59 GMT